date,time,DOY,Ta_1_1_1,Pa_1_1_1,RH_1_1_1,LWin_1_1_1,LWout_1_1_1,SWin_1_1_1,SWout_1_1_1,PPFD_1_1_1,MWS_1_1_1,WD_1_1_1,SWC_1_1_1,Ts_1_1_1
[yyyy-mm-dd],[HH:MM],[ddd.ddd],[K],[Pa],[%],[W+1m-2],[W+1m-2],[W+1m-2],[W+1m-2],[µmol+1m-2s-1],[m+1s-1],[deg],[m+3m-3],[K]
2018-01-31,00:30,31.020,263.40766666666656,94128.733333333337,72.016333333333336,274.56133333333332,276.24600000000004,6.66666666666665127E-004,6.73333333333333700E-002,1.00000000000000002E-003,9.5499999999999989,128.52266666666668,0.28000000000000014,273.30866666666674
2018-01-31,01:00,31.041,263.26866666666677,94103.533333333340,75.239666666666650,274.00000000000006,273.75233333333330,1.53333333333333308E-002,-2.93333333333333328E-002,3.00000000000000006E-003,9.3933333333333344,127.60033333333334,0.28000000000000014,273.30533333333335
2018-01-31,01:30,31.062,263.30433333333337,93976.666666666672,76.663333333333341,274.39900000000006,278.82100000000003,2.73333333333333380E-002,0.23333333333333331,-1.00000000000000002E-003,10.200000000000001,128.17866666666669,0.28000000000000014,273.30900000000003
2018-01-31,02:00,31.083,263.64099999999996,93900.866666666669,74.641000000000005,275.44233333333335,276.41399999999999,5.93333333333333560E-002,0.12766666666666671,1.00000000000000002E-003,9.8633333333333333,133.09966666666665,0.28000000000000014,273.30700000000002
2018-01-31,02:30,31.104,263.97033333333343,93930.933333333334,73.418000000000021,276.41533333333342,273.69800000000004,9.50000000000000427E-002,-3.53333333333333346E-002,2.00000000000000004E-003,9.4733333333333309,148.70066666666668,0.28000000000000014,273.30266666666677
2018-01-31,03:00,31.124,264.29533333333325,93979.066666666666,72.407999999999987,277.33366666666660,270.90266666666662,0.10333333333333336,-0.22600000000000003,6.00000000000000012E-003,8.7200000000000006,149.45566666666664,0.28000000000000014,273.30233333333337
2018-01-31,03:30,31.145,264.58466666666669,93919.766666666663,71.886333333333354,278.29733333333326,270.26766666666674,0.13566666666666671,-0.26233333333333336,2.00000000000000004E-003,8.6766666666666676,152.68933333333334,0.28000000000000014,273.30166666666668
2018-01-31,04:00,31.166,264.79866666666663,93786.066666666666,71.702333333333343,278.92166666666668,267.36566666666664,0.12600000000000003,-0.46299999999999991,3.00000000000000006E-003,9.3366666666666660,147.63333333333333,0.28000000000000014,273.29933333333338
2018-01-31,04:30,31.187,265.33000000000004,93600.966666666660,69.803000000000026,281.48500000000001,281.97366666666665,0.11800000000000005,9.53333333333333255E-002,7.00000000000000015E-003,10.966666666666665,150.07800000000000,0.28000000000000014,273.30300000000005
2018-01-31,05:00,31.208,265.77566666666655,93338.166666666672,68.516999999999996,282.73933333333326,271.87433333333342,9.66666666666666646E-002,-0.43700000000000011,0.0000000000000000,10.420000000000003,144.98933333333335,0.28000000000000014,273.29966666666672
2018-01-31,05:30,31.229,266.26766666666674,93419.933333333334,66.770666666666671,283.84666666666664,263.14666666666665,0.25666666666666665,-0.81199999999999994,2.00000000000000004E-003,9.5200000000000014,162.21133333333333,0.28000000000000014,273.30200000000002
2018-01-31,06:00,31.249,266.64766666666657,93550.333333333328,65.051666666666677,284.55533333333335,256.39600000000007,0.30933333333333324,-1.3056666666666665,1.00000000000000019E-002,6.8399999999999999,170.88833333333332,0.28000000000000014,273.30700000000002
2018-01-31,06:30,31.270,266.80766666666671,93464.300000000003,64.574666666666658,285.89233333333334,269.97899999999998,0.21033333333333340,-0.74066666666666670,2.00000000000000004E-003,7.5266666666666673,160.12300000000002,0.28000000000000014,273.30066666666676
2018-01-31,07:00,31.291,267.07900000000001,93446.233333333337,63.657333333333348,287.47500000000002,277.14600000000007,0.15600000000000003,-0.46966666666666668,0.0000000000000000,7.6633333333333349,168.13366666666667,0.28000000000000014,273.30400000000003
2018-01-31,07:30,31.312,267.19766666666663,93364.666666666672,63.414333333333325,287.87766666666658,274.08733333333328,0.15933333333333338,-0.64333333333333309,-1.00000000000000002E-003,7.6333333333333337,164.04500000000002,0.28000000000000014,273.30266666666671
2018-01-31,08:00,31.333,267.48800000000011,93325.600000000006,62.721666666666664,288.27600000000001,262.38100000000003,0.23733333333333334,-1.1469999999999998,2.00000000000000004E-003,7.8400000000000007,164.96666666666667,0.28000000000000014,273.30200000000008
2018-01-31,08:30,31.354,267.56466666666677,93300.266666666663,62.774666666666661,288.91466666666662,270.02999999999997,0.19233333333333341,-0.90866666666666662,1.00000000000000002E-003,7.7199999999999998,174.92300000000003,0.28000000000000014,273.30400000000003
2018-01-31,09:00,31.374,267.69000000000000,93275.933333333334,62.816333333333340,290.01833333333326,280.25900000000001,0.13533333333333336,-0.46799999999999992,0.0000000000000000,7.1366666666666676,170.55533333333332,0.28000000000000014,273.30400000000014
2018-01-31,09:30,31.395,267.78766666666667,93219.333333333328,62.920666666666655,290.60533333333331,281.86466666666666,0.11900000000000004,-0.40833333333333327,-3.33333333333333160E-004,6.8299999999999992,173.61133333333333,0.28000000000000014,273.29633333333339
2018-01-31,10:00,31.416,267.84766666666661,93172.366666666669,63.701000000000008,291.24566666666664,287.79266666666678,4.86666666666666775E-002,-0.18866666666666676,-1.00000000000000002E-003,6.1466666666666647,174.06599999999997,0.28000000000000014,273.29900000000004
2018-01-31,10:30,31.437,267.49633333333338,93143.233333333337,71.953666666666649,290.27300000000002,287.23466666666661,-0.11400000000000003,-0.34866666666666662,4.00000000000000008E-003,6.6399999999999979,172.12233333333333,0.28000000000000014,273.30066666666670
2018-01-31,11:00,31.458,266.97666666666669,93156.199999999997,82.170000000000016,288.70066666666662,286.68233333333330,-3.66666666666666703E-003,-0.24466666666666670,5.00000000000000010E-003,5.2300000000000004,183.23333333333332,0.28000000000000014,273.29666666666674
2018-01-31,11:30,31.479,267.04000000000019,93145.500000000000,82.991000000000014,288.90266666666668,286.67066666666670,0.10100000000000002,-9.06666666666667148E-002,1.00000000000000002E-003,5.1166666666666645,186.11099999999999,0.28000000000000014,273.30000000000007
2018-01-31,12:00,31.499,267.15766666666667,93095.699999999997,82.647000000000020,289.31666666666672,286.31800000000010,0.16133333333333333,-7.26666666666666849E-002,3.00000000000000006E-003,4.6599999999999993,184.97633333333334,0.28000000000000014,273.29666666666674
2018-01-31,12:30,31.520,267.26333333333332,93061.699999999997,82.562666666666672,289.69133333333332,286.12466666666666,0.13366666666666666,-0.12800000000000000,5.00000000000000010E-003,4.7300000000000004,184.66666666666666,0.28000000000000014,273.29733333333337
2018-01-31,13:00,31.541,267.48000000000008,93082.966666666660,82.494666666666689,290.58399999999989,286.93166666666662,0.19600000000000001,-6.20000000000000273E-002,1.20000000000000002E-002,5.1633333333333322,202.96633333333332,0.28000000000000014,273.29466666666673
2018-01-31,13:30,31.562,267.59033333333343,93079.699999999997,83.275000000000020,291.23533333333330,287.75366666666667,0.25533333333333336,0.47800000000000004,1.4149999999999998,4.5166666666666666,201.46666666666667,0.28000000000000014,273.29566666666676
2018-01-31,14:00,31.583,267.80333333333334,93090.666666666672,83.403000000000006,292.06266666666670,287.96333333333331,1.4226666666666670,5.6083333333333334,11.435333333333334,4.7266666666666657,210.71166666666667,0.28000000000000014,273.29933333333344
2018-01-31,14:30,31.604,268.04566666666682,93109.166666666672,82.346000000000018,293.17066666666670,286.33400000000006,4.7123333333333335,21.083333333333336,43.311666666666675,4.4900000000000002,215.51166666666668,0.28000000000000014,273.29600000000005
2018-01-31,15:00,31.624,268.24666666666661,93116.300000000003,80.374666666666641,294.12166666666667,287.28899999999987,7.0403333333333320,32.420666666666669,67.496333333333340,5.0866666666666651,228.91166666666669,0.28000000000000014,273.29233333333337
2018-01-31,15:30,31.645,268.41700000000009,93122.899999999994,77.782333333333327,295.42399999999998,285.46799999999996,17.856333333333332,83.263666666666666,165.17766666666665,4.7033333333333340,235.25633333333334,0.28000000000000014,273.29500000000007
2018-01-31,16:00,31.666,268.64900000000000,93143.800000000003,73.797666666666672,296.36799999999999,259.92533333333341,33.173666666666669,171.98033333333333,322.32899999999995,5.7300000000000022,236.63333333333333,0.28000000000000014,273.29400000000010
2018-01-31,16:30,31.687,268.77633333333330,93149.766666666663,70.890999999999991,297.41966666666679,236.53099999999998,57.951999999999998,324.23566666666665,595.21066666666661,5.3933333333333335,236.16633333333331,0.28000000000000014,273.29466666666667
2018-01-31,17:00,31.708,268.93100000000004,93171.966666666660,66.383666666666670,299.87799999999999,232.74333333333331,73.246333333333340,428.88166666666677,789.08866666666654,6.2366666666666664,226.64533333333335,0.28000000000000014,273.29600000000011
2018-01-31,17:30,31.729,269.10900000000009,93157.666666666672,60.277666666666654,300.84433333333334,233.19966666666673,76.772666666666666,455.32833333333332,852.64866666666660,6.1033333333333335,226.13233333333332,0.28000000000000014,273.29333333333335
2018-01-31,18:00,31.749,269.42033333333336,93122.399999999994,54.277666666666669,302.44033333333329,233.76266666666669,78.242333333333320,474.95833333333331,899.64300000000014,5.1266666666666660,224.02199999999999,0.28000000000000014,273.28733333333332
2018-01-31,18:30,31.770,269.92133333333334,93099.899999999994,51.956333333333326,304.26666666666665,235.44933333333336,77.709000000000003,478.65666666666669,914.33600000000013,6.0166666666666657,226.28900000000002,0.28000000000000014,273.29266666666678
2018-01-31,19:00,31.791,270.43400000000008,93076.199999999997,50.497666666666674,305.60466666666673,236.51933333333332,75.740333333333339,468.00799999999998,899.87100000000021,6.7433333333333341,227.99866666666665,0.28000000000000014,273.29500000000002
2018-01-31,19:30,31.812,271.22666666666669,93050.800000000003,49.719666666666662,308.70933333333329,238.66433333333333,71.289333333333332,442.63233333333335,856.69266666666658,6.0666666666666655,227.43333333333334,0.28000000000000014,273.29533333333336
2018-01-31,20:00,31.833,271.69099999999997,93033.899999999994,48.832333333333331,309.71266666666668,238.39900000000003,61.997999999999983,397.53066666666660,778.04666666666662,6.3699999999999992,224.35533333333336,0.28000000000000014,273.29533333333342
2018-01-31,20:30,31.854,271.71733333333333,93041.833333333328,46.833333333333329,308.91933333333338,236.35233333333335,52.237000000000002,358.29733333333331,694.48566666666670,6.1299999999999999,222.54333333333332,0.28000000000000014,273.29533333333342
2018-01-31,21:00,31.874,271.56100000000004,93073.600000000006,45.754666666666665,307.00033333333334,233.86400000000000,41.902666666666661,294.75933333333336,569.15066666666667,6.7899999999999983,223.44433333333333,0.28000000000000014,273.29000000000002
2018-01-31,21:30,31.895,271.16033333333331,93118.699999999997,46.057666666666677,303.82566666666668,231.52166666666659,25.803000000000001,170.72633333333337,336.27300000000002,6.9600000000000000,227.35600000000002,0.28000000000000014,273.29500000000007
2018-01-31,22:00,31.916,270.69466666666676,93165.699999999997,46.359000000000002,301.14333333333332,240.91799999999995,17.731333333333332,93.115000000000009,184.15366666666671,5.3466666666666667,226.13333333333333,0.28000000000000014,273.29166666666669
2018-01-31,22:30,31.937,270.27633333333341,93187.433333333334,47.080666666666680,299.09166666666658,238.55366666666666,12.456999999999997,62.147666666666694,117.61700000000003,5.6299999999999990,239.46666666666667,0.28000000000000014,273.29200000000009
2018-01-31,23:00,31.958,269.44933333333341,93212.766666666663,45.348000000000006,294.44366666666667,229.52633333333327,4.2796666666666674,15.511999999999999,33.681666666666658,5.6366666666666667,256.27766666666668,0.28000000000000014,273.29633333333339
2018-01-31,23:30,31.979,268.38400000000007,93291.199999999997,47.496000000000009,290.70299999999992,240.54200000000000,0.79833333333333323,-0.65333333333333354,2.9406666666666657,6.2799999999999994,258.59933333333333,0.28000000000000014,273.29033333333336
2018-02-01,00:00,32.000,267.51566666666662,93365.333333333328,50.271666666666668,289.43300000000005,271.19233333333335,8.23333333333333695E-002,-0.98133333333333350,1.70000000000000047E-002,7.1433333333333326,255.16600000000000,0.28000000000000014,273.29366666666670
